Epoch,demod_status_bits,ebno,lock_status,signal_level,viterbi_ber
1663013404,C;S;V;F,12.2,0x00c000,-38.7,1.48e-4
1663013405,C;S;V;F,10.6,0x00c000,-39.4,1.85e-5
1663013406,C;S;V;F,10.8,0x00c000,-39.6,6.91e-5
1663013407,,10.7,0x00c000,-38.4,
1663013408,C;S;V;F,11.5,0x00c000,-40.3,4.97e-5
1663013409,C;S;V;F,10.8,0x00c000,-39.5,6.79e-5
1663013410,C;S;V;F,,0x00c000,-39.6,8.42e-5
1663013411,C;S;V;F,11.4,0x00c000,,4.81e-5
1663013412,C;S;V;F,11.2,0x00c000,-38.6,4.48e-5
1663013413,C;S;V;F,12.3,0x00c000,-38.9,3.36e-5
1663013414,C;S;V;F,11.2,0x00c000,-39.6,3.57e-5
1663013415,C;S;V;F,12.6,0x00c000,-38.6,2.10e-5
1663013416,C;S;V;F,11.5,0x00c000,-39.6,1.49e-5
1663013417,C;S;V;F,11.9,0x00c000,-38.8,2.01e-5
1663013420,C;S;V;F,12.8,0x00c000,-38.0,1.22e-5
1663013421,C;S;V;F,12.8,0x00c000,-40.4,4.72e-5
1663013422,C;S;V;F,11.8,0x00c000,-38.1,6.58e-5
1663013423,C;S;V;F,12.4,0x00c000,-39.4,
1663013424,,12.8,0x00c000,-38.1,3.34e-5
1663013425,C;S;V;F,12.0,0x00c000,-38.9,2.91e-5
1663013426,C;S;V;F,12.5,0x00c000,-38.8,1.51e-6
1663013427,C;S;V;F,13.5,0x00c000,-37.8,7.56e-6
1663013428,C;S;V;F,,0x00c000,-38.3,4.99e-6
1663013429,C;S;V;F,13.5,0x00c000,,3.03e-7
1663013430,C;S;V;F,12.7,0x00c000,-38.0,1.05e-6
1663013431,C;S;V;F,12.1,0x00c000,-39.1,3.78e-6
1663013432,C;S;V;F,12.4,0x00c000,-38.8,4.99e-6
1663013433,C;S;V;F,12.6,0x00c000,-38.2,2.26e-6
1663013434,C;S;V;F,13.2,0x00c000,-37.8,1.36e-6
1663013435,C;S;V;F,13.5,0x00c000,-38.0,6.06e-7
1663013436,C;S;V;F,12.5,0x00c000,-38.2,1.51e-6
1663013437,C;S;V;F,13.7,0x00c000,-37.6,1.21e-6
1663013438,C;S;V;F,13.1,0x00c000,-37.9,0.00e-0
1663013439,C;S;V;F,12.9,0x00c000,-37.8,6.06e-7
1663013440,C;S;V;F,13.5,0x00c000,-37.1,
1663013441,C;S;V;F,14.2,0x00c000,-37.4,4.54e-7
1663013442,,13.8,0x00c000,-37.3,0.00e-0
1663013443,C;S;V;F,13.2,0x00c000,-36.9,0.00e-0
1663013444,C;S;V;F,14.4,0x00c000,-37.4,1.51e-7
1663013445,C;S;V;F,,0x00c000,-37.4,1.51e-7
1663013446,C;S;V;F,13.7,0x00c000,-37.5,0.00e-0
1663013447,C;S;V;F,13.6,0x00c000,,0.00e-0
1663013448,C;S;V;F,14.2,0x00c000,-37.2,0.00e-0
1663013449,C;S;V;F,13.6,0x00c000,-37.6,0.00e-0
1663013450,C;S;V;F,13.8,0x00c000,-37.5,0.00e-0
1663013451,C;S;V;F,13.3,0x00c000,-37.8,0.00e-0
1663013452,C;S;V;F,14.3,0x00c000,-37.1,0.00e-0
1663013453,C;S;V;F,13.6,0x00c000,-37.2,0.00e-0
1663013454,C;S;V;F,13.8,0x00c000,-37.5,0.00e-0
1663013455,C;S;V;F,14.3,0x00c000,-36.7,0.00e-0
1663013456,C;S;V;F,13.4,0x00c000,-37.8,0.00e-0
1663013457,C;S;V;F,14.1,0x00c000,-37.1,1.51e-7
1663013458,C;S;V;F,14.7,0x00c000,-36.5,0.00e-0
1663013459,C;S;V;F,13.5,0x00c000,-37.7,
1663013460,,13.6,0x00c000,-37.7,0.00e-0
1663013461,C;S;V;F,13.9,0x00c000,-37.4,0.00e-0
1663013462,C;S;V;F,,0x00c000,-36.9,0.00e-0
1663013463,C;S;V;F,14.0,0x00c000,-37.4,0.00e-0
1663013464,C;S;V;F,14.0,0x00c000,,0.00e-0
1663013465,C;S;V;F,13.7,0x00c000,-37.2,0.00e-0
1663013466,C;S;V;F,14.4,0x00c000,-37.1,0.00e-0
1663013467,C;S;V;F,14.3,0x00c000,-36.9,0.00e-0
1663013468,C;S;V;F,14.2,0x00c000,-37.4,0.00e-0
1663013469,C;S;V;F,13.6,0x00c000,-37.2,0.00e-0
1663013470,C;S;V;F,14.1,0x00c000,-36.9,0.00e-0
1663013471,C;S;V;F,14.4,0x00c000,-37.2,0.00e-0
1663013472,C;S;V;F,13.9,0x00c000,-37.1,0.00e-0
1663013473,,14.5,0x00c000,-37.0,
1663013474,C;S;V;F,14.6,0x00c000,-36.5,0.00e-0
1663013475,C;S;V;F,14.5,0x00c000,-37.2,0.00e-0
1663013476,C;S;V;F,,0x00c000,-36.6,0.00e-0
1663013477,C;S;V;F,14.5,0x00c000,,0.00e-0
1663013478,C;S;V;F,14.7,0x00c000,-36.6,0.00e-0
1663013479,C;S;V;F,14.7,0x00c000,-36.5,0.00e-0
1663013480,C;S;V;F,14.1,0x00c000,-37.2,0.00e-0
1663013483,C;S;V;F,14.7,0x00c000,-36.8,0.00e-0
1663013484,C;S;V;F,14.4,0x00c000,-37.1,0.00e-0
1663013485,C;S;V;F,14.4,0x00c000,-37.0,0.00e-0
1663013486,C;S;V;F,14.7,0x00c000,-36.7,0.00e-0
1663013487,C;S;V;F,14.4,0x00c000,-37.1,0.00e-0
1663013488,C;S;V;F,14.8,0x00c000,-36.9,0.00e-0
1663013489,C;S;V;F,14.7,0x00c000,-37.1,0.00e-0
1663013490,C;S;V;F,14.6,0x00c000,-36.8,0.00e-0
1663013491,C;S;V;F,14.8,0x00c000,-36.5,0.00e-0
1663013492,C;S;V;F,15.0,0x00c000,-36.6,0.00e-0
1663013493,C;S;V;F,14.7,0x00c000,-36.6,0.00e-0
1663013494,C;S;V;F,14.5,0x00c000,-36.8,0.00e-0
1663013495,C;S;V;F,14.9,0x00c000,-36.6,0.00e-0
1663013496,C;S;V;F,14.8,0x00c000,-36.1,0.00e-0
1663013497,C;S;V;F,15.4,0x00c000,-35.9,0.00e-0
1663013498,C;S;V;F,15.3,0x00c000,-36.3,
1663013499,,15.4,0x00c000,-36.2,0.00e-0
1663013500,C;S;V;F,15.0,0x00c000,-36.5,0.00e-0
1663013501,C;S;V;F,,0x00c000,-36.1,0.00e-0
1663013502,C;S;V;F,15.1,0x00c000,,0.00e-0
1663013503,C;S;V;F,15.5,0x00c000,-36.4,0.00e-0
1663013504,C;S;V;F,15.3,0x00c000,-36.3,0.00e-0
1663013505,C;S;V;F,15.9,0x00c000,-35.7,0.00e-0
1663013506,C;S;V;F,15.8,0x00c000,-35.6,0.00e-0
1663013507,C;S;V;F,15.5,0x00c000,-35.8,0.00e-0
1663013508,C;S;V;F,16.3,0x00c000,-35.5,0.00e-0
1663013509,C;S;V;F,15.6,0x00c000,-35.8,0.00e-0
1663013510,C;S;V;F,15.9,0x00c000,-35.6,0.00e-0
1663013511,C;S;V;F,15.8,0x00c000,-35.6,0.00e-0
1663013512,C;S;V;F,15.7,0x00c000,-35.8,0.00e-0
1663013513,C;S;V;F,16.1,0x00c000,-35.2,0.00e-0
1663013514,C;S;V;F,16.1,0x00c000,-35.2,0.00e-0
1663013515,C;S;V;F,15.7,0x00c000,-35.5,0.00e-0
1663013516,,15.4,0x00c000,-35.9,
1663013517,C;S;V;F,15.9,0x00c000,-35.5,0.00e-0
1663013518,C;S;V;F,15.8,0x00c000,-35.4,0.00e-0
1663013519,C;S;V;F,15.4,0x00c000,-35.6,0.00e-0
1663013520,C;S;V;F,,0x00c000,-35.5,0.00e-0
1663013521,C;S;V;F,16.0,0x00c000,-35.8,0.00e-0
1663013522,C;S;V;F,15.8,0x00c000,,0.00e-0
1663013523,C;S;V;F,15.4,0x00c000,-35.7,0.00e-0
1663013524,C;S;V;F,15.4,0x00c000,-36.3,0.00e-0
1663013525,C;S;V;F,15.3,0x00c000,-35.6,0.00e-0
1663013526,C;S;V;F,15.8,0x00c000,-35.5,0.00e-0
1663013527,C;S;V;F,15.7,0x00c000,-35.5,0.00e-0
1663013528,C;S;V;F,16.0,0x00c000,-35.3,0.00e-0
1663013529,C;S;V;F,16.0,0x00c000,-35.3,0.00e-0
1663013530,C;S;V;F,16.0,0x00c000,-35.3,0.00e-0
1663013531,C;S;V;F,16.2,0x00c000,-35.5,0.00e-0
1663013532,C;S;V;F,15.9,0x00c000,-35.8,0.00e-0
1663013533,C;S;V;F,15.4,0x00c000,-36.0,
1663013534,,15.7,0x00c000,-36.0,0.00e-0
1663013535,C;S;V;F,16.0,0x00c000,-35.6,0.00e-0
1663013536,C;S;V;F,,,,0.00e-0
1663013539,,,0x00c000,-35.3,
1663013540,C;S;V;F,16.1,0x00c000,,0.00e-0
1663013541,C;S;V;F,16.0,0x00c000,-35.5,0.00e-0
1663013542,C;S;V;F,16.2,0x00c000,-35.2,0.00e-0
1663013543,C;S;V;F,16.3,0x00c000,-35.5,0.00e-0
1663013545,,15.1,0x00c000,-36.0,
1663013546,C;S;V;F,,0x00c000,-35.8,0.00e-0
1663013547,C;S;V;F,15.7,0x00c000,,0.00e-0
1663013548,C;S;V;F,15.9,0x00c000,-35.5,0.00e-0
1663013549,C;S;V;F,15.6,0x00c000,-35.7,0.00e-0
1663013550,C;S;V;F,15.7,0x00c000,-35.6,0.00e-0
1663013551,C;S;V;F,16.1,0x00c000,-35.5,0.00e-0
1663013552,C;S;V;F,15.9,0x00c000,-35.7,0.00e-0
1663013553,C;S;V;F,15.5,0x00c000,-36.0,0.00e-0
1663013554,C;S;V;F,15.4,0x00c000,-36.0,0.00e-0
1663013555,C;S;V;F,15.7,0x00c000,-36.0,0.00e-0
1663013556,C;S;V;F,15.5,0x00c000,-36.2,0.00e-0
1663013557,C;S;V;F,15.4,0x00c000,-36.4,0.00e-0
1663013558,C;S;V;F,14.6,0x00c000,-37.0,0.00e-0
1663013559,C;S;V;F,14.9,0x00c000,-36.3,0.00e-0
1663013560,C;S;V;F,15.2,0x00c000,-36.7,0.00e-0
1663013561,C;S;V;F,15.0,0x00c000,-36.8,
1663013562,,14.7,0x00c000,-36.7,0.00e-0
1663013563,C;S;V;F,14.7,0x00c000,-37.3,0.00e-0
1663013564,C;S;V;F,14.4,0x00c000,-37.1,0.00e-0
1663013565,C;S;V;F,14.5,0x00c000,-37.2,0.00e-0
1663013566,C;S;V;F,,0x00c000,-37.3,0.00e-0
1663013567,C;S;V;F,14.0,0x00c000,,0.00e-0
1663013568,C;S;V;F,14.3,0x00c000,-37.5,0.00e-0
1663013569,C;S;V;F,13.8,0x00c000,-37.8,0.00e-0
1663013570,C;S;V;F,14.0,0x00c000,-37.5,0.00e-0
1663013571,C;S;V;F,14.0,0x00c000,-37.7,0.00e-0
1663013572,C;S;V;F,13.6,0x00c000,-38.0,0.00e-0
1663013573,C;S;V;F,13.2,0x00c000,-38.2,0.00e-0
1663013574,C;S;V;F,13.8,0x00c000,-37.9,0.00e-0
1663013575,C;S;V;F,13.7,0x00c000,-38.0,0.00e-0
1663013576,C;S;V;F,13.8,0x00c000,-37.8,0.00e-0
1663013577,C;S;V;F,13.9,0x00c000,-37.9,0.00e-0
1663013578,C;S;V;F,14.1,0x00c000,-37.9,
1663013579,,13.7,0x00c000,-37.9,0.00e-0
1663013580,C;S;V;F,13.3,0x00c000,-38.5,0.00e-0
1663013581,C;S;V;F,13.2,0x00c000,-38.6,3.03e-7
1663013582,C;S;V;F,,0x00c000,-38.2,4.54e-7
1663013583,C;S;V;F,13.0,0x00c000,,3.03e-7
1663013584,C;S;V;F,12.7,0x00c000,-38.5,0.00e-0
1663013585,C;S;V;F,13.0,0x00c000,-38.7,1.51e-7
1663013586,C;S;V;F,12.9,0x00c000,-38.4,3.03e-7
1663013587,C;S;V;F,13.5,0x00c000,-38.2,0.00e-0
1663013588,C;S;V;F,12.7,0x00c000,-38.6,0.00e-0
1663013589,C;S;V;F,13.2,0x00c000,-38.3,3.03e-7
1663013590,C;S;V;F,13.3,0x00c000,-38.3,0.00e-0
1663013591,C;S;V;F,13.2,0x00c000,-38.4,1.51e-7
1663013592,C;S;V;F,13.3,0x00c000,-38.5,
1663013593,,12.3,0x00c000,-39.3,1.51e-7
1663013594,C;S;V;F,12.7,0x00c000,-38.8,7.57e-7
1663013595,C;S;V;F,12.9,0x00c000,-38.7,9.09e-7
1663013596,C;S;V;F,,0x00c000,-38.3,4.54e-7
1663013597,C;S;V;F,13.2,0x00c000,-38.4,3.03e-7
1663013598,C;S;V;F,12.9,0x00c000,-38.2,1.51e-7
1663013599,C;S;V;F,13.1,0x00c000,-37.9,1.51e-7
1663013600,C;S;V;F,13.7,0x00c000,,0.00e-0
1663013601,C;S;V;F,13.6,0x00c000,-37.9,0.00e-0
1663013602,C;S;V;F,14.0,0x00c000,-37.5,0.00e-0
1663013603,C;S;V;F,14.2,0x00c000,-37.1,0.00e-0
1663013604,C;S;V;F,14.1,0x00c000,-37.6,0.00e-0
1663013605,C;S;V;F,14.3,0x00c000,-37.5,0.00e-0
1663013606,C;S;V;F,13.9,0x00c000,-37.7,0.00e-0
1663013608,C;S;V;F,14.2,0x00c000,-37.4,0.00e-0
1663013609,C;S;V;F,14.4,0x00c000,-37.3,
1663013610,C;S;V;F,14.5,0x00c000,-37.1,0.00e-0
1663013611,,14.9,0x00c000,-36.9,0.00e-0
1663013612,C;S;V;F,14.8,0x00c000,-36.6,0.00e-0
1663013613,C;S;V;F,15.1,0x00c000,-36.3,0.00e-0
1663013614,C;S;V;F,15.1,0x00c000,-36.3,0.00e-0
1663013615,C;S;V;F,15.5,0x00c000,-35.9,0.00e-0
1663013616,C;S;V;F,15.7,0x00c000,-35.9,0.00e-0
1663013617,C;S;V;F,,0x00c000,-36.1,0.00e-0
1663013618,C;S;V;F,15.6,0x00c000,-35.6,0.00e-0
1663013619,C;S;V;F,15.5,0x00c000,,0.00e-0
1663013620,C;S;V;F,16.3,0x00c000,-35.5,0.00e-0
1663013621,C;S;V;F,15.7,0x00c000,-36.0,0.00e-0
1663013622,C;S;V;F,15.4,0x00c000,-36.1,0.00e-0
1663013623,C;S;V;F,15.4,0x00c000,-36.5,0.00e-0
1663013624,C;S;V;F,14.9,0x00c000,-36.3,0.00e-0
1663013625,C;S;V;F,15.4,0x00c000,-36.3,0.00e-0
1663013626,C;S;V;F,15.4,0x00c000,-36.3,0.00e-0
1663013627,C;S;V;F,15.6,0x00c000,-35.9,0.00e-0
1663013628,C;S;V;F,15.6,0x00c000,-36.2,
1663013629,C;S;V;F,15.4,0x00c000,-36.4,0.00e-0
1663013630,,15.2,0x00c000,-36.0,0.00e-0
1663013631,C;S;V;F,15.0,0x00c000,-36.4,0.00e-0
1663013632,C;S;V;F,,0x00c000,-36.3,0.00e-0
1663013633,C;S;V;F,15.5,0x00c000,-36.0,0.00e-0
1663013634,C;S;V;F,15.4,0x00c000,,0.00e-0
1663013635,C;S;V;F,15.2,0x00c000,-36.5,0.00e-0
1663013636,C;S;V;F,15.2,0x00c000,-36.4,0.00e-0
1663013637,C;S;V;F,15.1,0x00c000,-36.5,0.00e-0
1663013638,C;S;V;F,14.7,0x00c000,-36.8,0.00e-0
1663013639,C;S;V;F,15.0,0x00c000,-36.8,0.00e-0
1663013640,C;S;V;F,15.0,0x00c000,-36.7,0.00e-0
1663013641,C;S;V;F,14.6,0x00c000,-36.8,0.00e-0
1663013642,C;S;V;F,14.7,0x00c000,-36.6,0.00e-0
1663013643,C;S;V;F,14.4,0x00c000,-37.4,0.00e-0
1663013644,C;S;V;F,14.9,0x00c000,-36.5,0.00e-0
1663013645,C;S;V;F,14.8,0x00c000,-36.7,0.00e-0
1663013646,C;S;V;F,14.7,0x00c000,-36.9,0.00e-0
1663013647,C;S;V;F,14.8,0x00c000,-37.1,0.00e-0
1663013648,C;S;V;F,14.6,0x00c000,-37.0,0.00e-0
1663013649,C;S;V;F,14.8,0x00c000,-37.1,
1663013650,,14.8,0x00c000,-36.8,0.00e-0
1663013651,C;S;V;F,14.7,0x00c000,-37.0,0.00e-0
1663013652,C;S;V;F,14.8,0x00c000,-36.9,0.00e-0
1663013653,C;S;V;F,,0x00c000,-36.5,0.00e-0
1663013654,C;S;V;F,15.0,0x00c000,-36.5,0.00e-0
1663013655,C;S;V;F,15.1,0x00c000,-36.1,0.00e-0
1663013656,C;S;V;F,15.3,0x00c000,,0.00e-0
1663013657,C;S;V;F,14.5,0x00c000,-37.1,0.00e-0
1663013658,C;S;V;F,14.5,0x00c000,-36.8,0.00e-0
1663013659,C;S;V;F,14.8,0x00c000,-36.8,0.00e-0
1663013660,C;S;V;F,14.8,0x00c000,-36.8,0.00e-0
1663013661,C;S;V;F,14.9,0x00c000,-36.6,0.00e-0
1663013662,C;S;V;F,14.8,0x00c000,-36.5,0.00e-0
1663013663,C;S;V;F,14.5,0x00c000,-36.9,0.00e-0
1663013664,C;S;V;F,14.6,0x00c000,-37.1,0.00e-0
1663013665,C;S;V;F,14.8,0x00c000,-36.7,0.00e-0
1663013666,C;S;V;F,15.5,0x00c000,-35.8,0.00e-0
1663013667,C;S;V;F,15.1,0x00c000,-36.4,0.00e-0
1663013668,C;S;V;F,15.2,0x00c000,-36.5,0.00e-0
1663013671,C;S;V;F,15.2,0x00c000,-36.3,0.00e-0
1663013672,C;S;V;F,15.0,0x00c000,-36.5,0.00e-0
1663013673,C;S;V;F,14.6,0x00c000,-36.9,0.00e-0
1663013674,C;S;V;F,14.7,0x00c000,-36.7,0.00e-0
1663013675,C;S;V;F,14.8,0x00c000,-36.8,0.00e-0
1663013676,C;S;V;F,14.6,0x00c000,-36.9,
1663013677,C;S;V;F,14.5,0x00c000,-37.1,0.00e-0
1663013678,,14.9,0x00c000,-36.7,0.00e-0
1663013679,C;S;V;F,14.7,0x00c000,-36.8,0.00e-0
1663013680,C;S;V;F,,0x00c000,-36.3,0.00e-0
1663013681,C;S;V;F,15.2,0x00c000,-36.6,0.00e-0
1663013682,C;S;V;F,15.1,0x00c000,,0.00e-0
1663013683,C;S;V;F,15.0,0x00c000,-36.7,0.00e-0
1663013684,C;S;V;F,15.0,0x00c000,-36.4,0.00e-0
1663013685,C;S;V;F,15.2,0x00c000,-36.2,0.00e-0
1663013686,C;S;V;F,15.4,0x00c000,-36.6,0.00e-0
1663013687,C;S;V;F,14.8,0x00c000,-36.8,0.00e-0
1663013688,C;S;V;F,15.1,0x00c000,-36.4,0.00e-0
1663013689,C;S;V;F,15.1,0x00c000,-36.4,0.00e-0
1663013690,C;S;V;F,15.1,0x00c000,-36.5,0.00e-0
1663013691,C;S;V;F,15.2,0x00c000,-36.5,0.00e-0
1663013692,C;S;V;F,14.9,0x00c000,-36.8,0.00e-0
1663013693,C;S;V;F,14.6,0x00c000,-36.7,0.00e-0
1663013694,C;S;V;F,15.0,0x00c000,-36.7,0.00e-0
1663013695,C;S;V;F,15.2,0x00c000,-36.4,0.00e-0
1663013696,C;S;V;F,15.0,0x00c000,-36.3,0.00e-0
1663013697,C;S;V;F,15.3,0x00c000,-36.3,0.00e-0
1663013698,C;S;V;F,15.1,0x00c000,-36.3,0.00e-0
1663013699,C;S;V;F,15.7,0x00c000,-35.8,0.00e-0
1663013700,C;S;V;F,15.6,0x00c000,-35.8,0.00e-0
1663013701,C;S;V;F,15.5,0x00c000,-36.2,0.00e-0
1663013702,C;S;V;F,15.6,0x00c000,-35.9,
1663013703,C;S;V;F,15.5,0x00c000,-36.3,0.00e-0
1663013704,,15.8,0x00c000,-35.8,0.00e-0
1663013705,C;S;V;F,15.5,0x00c000,-36.0,0.00e-0
1663013706,C;S;V;F,15.5,0x00c000,-35.9,0.00e-0
1663013707,C;S;V;F,15.3,0x00c000,-36.4,0.00e-0
1663013708,C;S;V;F,15.4,0x00c000,-36.4,0.00e-0
1663013709,C;S;V;F,,0x00c000,-36.3,0.00e-0
1663013710,C;S;V;F,15.6,0x00c000,-36.2,0.00e-0
1663013711,C;S;V;F,15.5,0x00c000,,0.00e-0
1663013712,C;S;V;F,15.5,0x00c000,-36.0,0.00e-0
1663013713,C;S;V;F,15.3,0x00c000,-36.5,0.00e-0
1663013714,C;S;V;F,15.6,0x00c000,-36.0,0.00e-0
1663013715,C;S;V;F,15.4,0x00c000,-36.1,0.00e-0
1663013716,C;S;V;F,15.6,0x00c000,-35.9,0.00e-0
1663013717,C;S;V;F,15.5,0x00c000,-36.0,0.00e-0
1663013718,C;S;V;F,15.5,0x00c000,-36.0,0.00e-0
1663013719,C;S;V;F,15.3,0x00c000,-36.3,0.00e-0
1663013720,C;S;V;F,15.3,0x00c000,-36.2,0.00e-0
1663013721,,15.2,0x00c000,-36.0,
1663013722,C;S;V;F,15.2,0x00c000,-36.2,0.00e-0
1663013723,C;S;V;F,15.3,0x00c000,-36.3,0.00e-0
1663013724,C;S;V;F,15.3,0x00c000,-36.2,0.00e-0
1663013725,C;S;V;F,,0x00c000,-36.2,0.00e-0
1663013726,C;S;V;F,15.3,0x00c000,-36.3,0.00e-0
1663013727,C;S;V;F,15.4,0x00c000,-36.0,0.00e-0
1663013728,C;S;V;F,15.6,0x00c000,,0.00e-0
1663013729,C;S;V;F,15.6,0x00c000,-35.8,0.00e-0
1663013730,C;S;V;F,15.8,0x00c000,-35.7,0.00e-0
1663013731,C;S;V;F,16.2,0x00c000,-35.5,0.00e-0
1663013734,C;S;V;F,16.0,0x00c000,-35.6,0.00e-0
1663013735,C;S;V;F,15.6,0x00c000,-35.9,0.00e-0
1663013736,C;S;V;F,15.7,0x00c000,-35.9,0.00e-0
1663013737,C;S;V;F,15.8,0x00c000,-35.7,0.00e-0
1663013738,C;S;V;F,15.6,0x00c000,-35.9,0.00e-0
1663013739,C;S;V;F,15.5,0x00c000,-36.0,0.00e-0
1663013740,C;S;V;F,15.6,0x00c000,-35.6,0.00e-0
1663013741,C;S;V;F,15.7,0x00c000,-35.6,0.00e-0
1663013742,C;S;V;F,15.6,0x00c000,-35.6,0.00e-0
1663013743,C;S;V;F,15.9,0x00c000,-35.5,0.00e-0
1663013744,C;S;V;F,15.8,0x00c000,-35.6,
1663013745,,16.0,0x00c000,-35.6,0.00e-0
1663013746,C;S;V;F,15.6,0x00c000,-35.7,0.00e-0
1663013747,C;S;V;F,15.9,0x00c000,-35.6,0.00e-0
1663013748,C;S;V;F,15.9,0x00c000,-35.5,0.00e-0
1663013749,C;S;V;F,16.0,0x00c000,-35.3,0.00e-0
1663013750,C;S;V;F,,0x00c000,-35.1,0.00e-0
1663013751,C;S;V;F,16.1,0x00c000,-35.2,0.00e-0
1663013752,C;S;V;F,16.1,0x00c000,-35.2,0.00e-0
1663013753,C;S;V;F,16.1,0x00c000,,0.00e-0
1663013754,C;S;V;F,16.5,0x00c000,-35.0,0.00e-0
1663013755,C;S;V;F,16.4,0x00c000,-35.0,0.00e-0
1663013756,C;S;V;F,16.6,0x00c000,-34.8,0.00e-0
1663013757,C;S;V;F,16.5,0x00c000,-34.8,0.00e-0
1663013758,C;S;V;F,16.5,0x00c000,-34.8,0.00e-0
1663013759,C;S;V;F,16.4,0x00c000,-34.8,0.00e-0
1663013760,C;S;V;F,16.3,0x00c000,-35.0,0.00e-0
1663013761,C;S;V;F,16.4,0x00c000,-35.3,0.00e-0
1663013762,C;S;V;F,16.1,0x00c000,-35.4,0.00e-0
1663013763,C;S;V;F,16.0,0x00c000,-35.6,0.00e-0
1663013764,C;S;V;F,15.6,0x00c000,-35.7,
1663013765,,15.9,0x00c000,-35.6,0.00e-0
1663013766,C;S;V;F,15.6,0x00c000,-35.7,0.00e-0
1663013767,C;S;V;F,16.0,0x00c000,-35.3,0.00e-0
1663013768,C;S;V;F,16.1,0x00c000,-34.8,0.00e-0
1663013769,C;S;V;F,,0x00c000,-34.8,0.00e-0
1663013770,C;S;V;F,16.6,0x00c000,-34.8,0.00e-0
1663013771,C;S;V;F,16.4,0x00c000,,0.00e-0
1663013772,C;S;V;F,16.5,0x00c000,-34.6,0.00e-0
1663013773,C;S;V;F,16.7,0x00c000,-34.6,0.00e-0
1663013774,C;S;V;F,16.7,0x00c000,-34.3,0.00e-0
1663013775,C;S;V;F,16.8,0x00c000,-34.7,0.00e-0
1663013776,C;S;V;F,17.0,0x00c000,-34.4,0.00e-0
1663013777,C;S;V;F,16.6,0x00c000,-34.7,0.00e-0
1663013778,C;S;V;F,16.6,0x00c000,-34.7,0.00e-0
1663013779,C;S;V;F,16.8,0x00c000,-34.6,0.00e-0
1663013780,C;S;V;F,16.9,0x00c000,-34.7,0.00e-0
1663013781,C;S;V;F,16.9,0x00c000,-34.5,0.00e-0
1663013782,C;S;V;F,16.4,0x00c000,-34.9,0.00e-0
1663013783,C;S;V;F,16.5,0x00c000,-34.9,
1663013784,,16.3,0x00c000,-34.9,0.00e-0
1663013785,C;S;V;F,16.3,0x00c000,-35.2,0.00e-0
1663013786,C;S;V;F,16.5,0x00c000,-34.7,0.00e-0
1663013787,C;S;V;F,16.5,0x00c000,-34.5,0.00e-0
1663013788,C;S;V;F,,0x00c000,-34.5,0.00e-0
1663013789,C;S;V;F,16.8,0x00c000,,0.00e-0
1663013790,C;S;V;F,17.0,0x00c000,-34.1,0.00e-0
1663013791,C;S;V;F,16.9,0x00c000,-34.3,0.00e-0
1663013792,C;S;V;F,16.9,0x00c000,-34.3,0.00e-0
1663013793,C;S;V;F,17.0,0x00c000,-34.4,0.00e-0
1663013794,C;S;V;F,16.6,0x00c000,-34.6,0.00e-0
1663013796,,16.7,0x00c000,-34.4,
1663013797,C;S;V;F,,0x00c000,-35.0,0.00e-0
1663013798,C;S;V;F,16.3,0x00c000,-35.2,0.00e-0
1663013799,C;S;V;F,16.0,0x00c000,,0.00e-0
1663013800,C;S;V;F,15.9,0x00c000,-35.4,0.00e-0
1663013801,C;S;V;F,16.0,0x00c000,-35.5,0.00e-0
1663013802,C;S;V;F,15.9,0x00c000,-35.5,0.00e-0
1663013803,C;S;V;F,15.8,0x00c000,-35.8,0.00e-0
1663013804,C;S;V;F,15.9,0x00c000,-35.6,0.00e-0
1663013805,C;S;V;F,15.6,0x00c000,-35.9,0.00e-0
1663013806,C;S;V;F,15.9,0x00c000,-35.6,0.00e-0
1663013807,C;S;V;F,15.9,0x00c000,-35.6,0.00e-0
1663013808,C;S;V;F,15.2,0x00c000,-36.0,0.00e-0
1663013809,C;S;V;F,15.5,0x00c000,-36.1,0.00e-0
1663013810,C;S;V;F,15.8,0x00c000,-35.7,0.00e-0
1663013811,C;S;V;F,15.8,0x00c000,-35.9,0.00e-0
1663013812,C;S;V;F,15.9,0x00c000,-35.6,0.00e-0
1663013813,C;S;V;F,15.4,0x00c000,-36.0,0.00e-0
1663013814,C;S;V;F,15.6,0x00c000,-36.0,0.00e-0
1663013815,C;S;V;F,15.6,0x00c000,-36.0,
1663013816,,15.3,0x00c000,-35.7,0.00e-0
1663013817,C;S;V;F,15.4,0x00c000,-36.0,0.00e-0
1663013818,C;S;V;F,15.0,0x00c000,-36.3,0.00e-0
1663013819,C;S;V;F,15.0,0x00c000,-36.6,0.00e-0
1663013820,C;S;V;F,,0x00c000,-36.6,0.00e-0
1663013821,C;S;V;F,14.8,0x00c000,,0.00e-0
1663013822,C;S;V;F,14.2,0x00c000,-37.2,0.00e-0
1663013823,C;S;V;F,14.2,0x00c000,-37.6,0.00e-0
1663013824,C;S;V;F,13.7,0x00c000,-37.7,0.00e-0
1663013825,C;S;V;F,13.6,0x00c000,-38.0,0.00e-0
1663013826,C;S;V;F,13.6,0x00c000,-38.0,0.00e-0
1663013827,C;S;V;F,13.6,0x00c000,-38.1,
1663013828,C;S;V;F,13.6,0x00c000,-38.0,0.00e-0
1663013829,,13.7,0x00c000,-37.9,0.00e-0
1663013830,C;S;V;F,13.6,0x00c000,-37.9,0.00e-0
1663013831,C;S;V;F,13.5,0x00c000,-38.4,0.00e-0
1663013832,C;S;V;F,13.1,0x00c000,-38.4,0.00e-0
1663013833,C;S;V;F,13.1,0x00c000,-38.2,1.51e-7
1663013834,C;S;V;F,,0x00c000,-38.0,4.54e-7
1663013835,C;S;V;F,13.6,0x00c000,-38.6,1.51e-7
1663013836,C;S;V;F,12.7,0x00c000,,4.54e-7
1663013837,C;S;V;F,12.8,0x00c000,-38.1,6.06e-7
1663013838,C;S;V;F,13.6,0x00c000,-37.9,3.03e-7
1663013839,C;S;V;F,14.0,0x00c000,-37.6,0.00e-0
1663013842,,13.7,0x00c000,-37.4,
1663013843,C;S;V;F,13.9,0x00c000,-37.6,0.00e-0
1663013844,C;S;V;F,14.0,0x00c000,-37.6,0.00e-0
1663013845,C;S;V;F,,0x00c000,-37.6,0.00e-0
1663013846,C;S;V;F,13.6,0x00c000,-38.1,0.00e-0
1663013847,C;S;V;F,13.1,0x00c000,-38.3,0.00e-0
1663013848,C;S;V;F,13.1,0x00c000,-38.4,1.51e-7
1663013849,C;S;V;F,12.6,0x00c000,-38.4,6.06e-7
1663013850,C;S;V;F,12.8,0x00c000,,7.57e-7
1663013851,C;S;V;F,12.7,0x00c000,-38.7,1.05e-6
1663013852,C;S;V;F,12.5,0x00c000,-38.6,1.36e-6
1663013853,C;S;V;F,12.8,0x00c000,-38.4,1.05e-6
1663013854,C;S;V;F,12.6,0x00c000,-38.8,1.21e-6
1663013855,C;S;V;F,12.7,0x00c000,-38.7,1.05e-6
1663013856,C;S;V;F,13.1,0x00c000,-38.1,3.03e-7
1663013857,C;S;V;F,13.3,0x00c000,-38.0,1.51e-7
1663013859,C;S;V;F,13.2,0x00c000,-38.0,0.00e-0
1663013860,C;S;V;F,13.2,0x00c000,-38.0,0.00e-0
1663013861,C;S;V;F,12.8,0x00c000,-38.3,
1663013862,,13.5,0x00c000,-37.8,0.00e-0
1663013863,C;S;V;F,13.5,0x00c000,-38.1,0.00e-0
1663013864,C;S;V;F,13.3,0x00c000,-37.8,0.00e-0
1663013865,C;S;V;F,14.1,0x00c000,-37.5,0.00e-0
1663013866,C;S;V;F,,0x00c000,-36.8,0.00e-0
1663013867,C;S;V;F,14.1,0x00c000,-36.6,0.00e-0
1663013868,C;S;V;F,14.6,0x00c000,,0.00e-0
1663013869,C;S;V;F,14.6,0x00c000,-36.5,0.00e-0
1663013870,C;S;V;F,14.5,0x00c000,-36.5,0.00e-0
1663013871,C;S;V;F,14.1,0x00c000,-37.1,0.00e-0
1663013872,C;S;V;F,14.4,0x00c000,-36.6,0.00e-0
1663013873,C;S;V;F,14.6,0x00c000,-36.6,0.00e-0
1663013874,C;S;V;F,14.4,0x00c000,-36.9,0.00e-0
1663013875,C;S;V;F,14.0,0x00c000,-37.1,0.00e-0
1663013876,C;S;V;F,13.9,0x00c000,-37.8,0.00e-0
1663013877,C;S;V;F,13.3,0x00c000,-37.9,0.00e-0
1663013878,C;S;V;F,13.4,0x00c000,-37.3,0.00e-0
1663013879,C;S;V;F,13.8,0x00c000,-37.2,
1663013880,,13.6,0x00c000,-38.0,0.00e-0
1663013881,C;S;V;F,13.0,0x00c000,-37.9,0.00e-0
1663013882,C;S;V;F,13.9,0x00c000,-37.5,1.51e-7
1663013883,C;S;V;F,13.3,0x00c000,-37.9,1.51e-7
1663013884,C;S;V;F,13.8,0x00c000,-37.6,0.00e-0
1663013885,C;S;V;F,,0x00c000,-37.4,0.00e-0
1663013886,C;S;V;F,13.5,0x00c000,-37.2,0.00e-0
1663013887,C;S;V;F,13.9,0x00c000,,0.00e-0
1663013888,C;S;V;F,13.8,0x00c000,-37.2,0.00e-0
1663013889,C;S;V;F,14.2,0x00c000,-36.7,0.00e-0
1663013890,C;S;V;F,14.4,0x00c000,-36.4,0.00e-0
1663013891,C;S;V;F,14.8,0x00c000,-36.3,0.00e-0
1663013892,C;S;V;F,14.9,0x00c000,-36.3,0.00e-0
1663013893,C;S;V;F,14.6,0x00c000,-36.2,0.00e-0
1663013894,C;S;V;F,15.0,0x00c000,-36.3,0.00e-0
1663013895,C;S;V;F,14.5,0x00c000,-36.5,0.00e-0
1663013896,C;S;V;F,14.4,0x00c000,-36.5,0.00e-0
1663013897,C;S;V;F,14.6,0x00c000,-36.7,0.00e-0
1663013898,C;S;V;F,14.2,0x00c000,-37.1,0.00e-0
1663013899,C;S;V;F,14.3,0x00c000,-36.8,0.00e-0
1663013900,C;S;V;F,14.2,0x00c000,-37.1,
1663013901,,14.1,0x00c000,-37.0,0.00e-0
1663013902,C;S;V;F,14.6,0x00c000,-36.7,0.00e-0
1663013903,C;S;V;F,14.8,0x00c000,-36.3,0.00e-0
1663013904,C;S;V;F,14.1,0x00c000,-36.8,0.00e-0
1663013905,C;S;V;F,,0x00c000,-37.2,0.00e-0
1663013906,C;S;V;F,13.9,0x00c000,,0.00e-0
1663013907,C;S;V;F,14.1,0x00c000,-37.1,0.00e-0
1663013908,C;S;V;F,14.2,0x00c000,-37.0,0.00e-0
1663013909,C;S;V;F,13.8,0x00c000,-37.1,0.00e-0
1663013910,C;S;V;F,13.7,0x00c000,-37.2,0.00e-0
1663013911,C;S;V;F,14.1,0x00c000,-37.1,0.00e-0
1663013912,C;S;V;F,13.6,0x00c000,-37.7,0.00e-0
1663013913,C;S;V;F,13.8,0x00c000,-37.1,0.00e-0
1663013914,C;S;V;F,13.7,0x00c000,-37.4,0.00e-0
1663013915,C;S;V;F,14.5,0x00c000,-36.4,
1663013916,,14.5,0x00c000,-36.8,0.00e-0
1663013917,C;S;V;F,14.6,0x00c000,-36.4,0.00e-0
1663013918,C;S;V;F,14.6,0x00c000,-36.4,0.00e-0
1663013919,C;S;V;F,,0x00c000,-36.5,0.00e-0
1663013920,C;S;V;F,14.4,0x00c000,,0.00e-0
1663013922,C;S;V;F,14.2,0x00c000,-36.7,0.00e-0
1663013923,C;S;V;F,13.5,0x00c000,-37.5,0.00e-0
1663013924,C;S;V;F,13.6,0x00c000,-37.3,0.00e-0
1663013925,C;S;V;F,13.4,0x00c000,-37.7,0.00e-0
1663013926,C;S;V;F,13.4,0x00c000,-37.6,1.51e-7
1663013927,C;S;V;F,13.9,0x00c000,-36.5,1.51e-7
1663013928,,,0x00c000,-37.1,
1663013929,C;S;V;F,14.2,0x00c000,,0.00e-0
1663013930,C;S;V;F,14.1,0x00c000,-37.0,0.00e-0
1663013931,C;S;V;F,14.2,0x00c000,-36.8,0.00e-0
1663013932,C;S;V;F,14.0,0x00c000,-36.8,0.00e-0
1663013933,C;S;V;F,13.9,0x00c000,-37.0,0.00e-0
1663013934,C;S;V;F,14.2,0x00c000,-36.9,0.00e-0
1663013935,C;S;V;F,14.3,0x00c000,-37.1,0.00e-0
1663013936,C;S;V;F,14.1,0x00c000,-36.6,0.00e-0
1663013937,C;S;V;F,14.1,0x00c000,-36.7,0.00e-0
1663013938,C;S;V;F,13.7,0x00c000,-37.3,0.00e-0
1663013939,C;S;V;F,13.4,0x00c000,-37.8,0.00e-0
1663013940,C;S;V;F,12.8,0x00c000,-38.4,3.03e-7
1663013941,C;S;V;F,12.9,0x00c000,-37.6,2.57e-6
1663013942,C;S;V;F,13.7,0x00c000,-38.3,6.06e-7
1663013943,,12.9,0x00c000,-37.8,
1663013944,C;S;V;F,14.0,0x00c000,-37.4,6.06e-7